User: anonymous
Location: Deer Lodge Site
(39.6809°N, 119.9392°W)
Time: 07:11:08
(UTC-07:00)
Language:

CZ-4C R/B - Orbit

View from above orbital plane
View from above orbital plane
View from above satellite
View from above satellite

Ground track
Ground track

The orbit data is extracted from the following two-line orbital elements,

1 36416U 10009D   14241.04377232 -.00000092  00000-0  32734-5 0  7398
2 36416 063.4487 125.1265 0287057 000.2601 359.8536 13.69422607224258
Epoch (UTC): 29 August 2014 01:03:01
Eccentricity: 0.0287057
inclination: 63.4487°
perigee height: 790 km
apogee height: 1213 km
right ascension of ascending node: 125.1265°
argument of perigee: 0.2601°
revolutions per day: 13.69422607
mean anomaly at epoch: 359.8536°
orbit number at epoch: 22425

The dashed part of the orbit path shows where the satellite is in the earth's shadow,  

DLR